Wind_Speed
7 12 21 27 33 40 43 45 52 62 68 70 68 67 65 62 61 62 64 65 64 61 61 62 62 61 62 65 66 65 64 64 66 67 67 67 67 68 68 68 70 71
13 19 24 28 34 38 42 45 47 53 62 67 68 67 64 60 59 61 61 61 62 63 64 63 61 59 60 63 65 66 67 70 71 72 73 73 73 73 73 73 74 75
17 22 26 31 33 35 38 42 46 51 57 62 65 65 62 59 59 58 56 56 59 61 63 63 63 63 65 66 67 67 69 71 72 72 73 73 73 73 73 74 74 75
23 25 29 33 35 36 38 41 45 52 56 58 59 60 58 56 56 55 54 55 57 59 61 61 61 63 65 66 67 68 70 71 71 70 70 69 69 69 70 70 70 71
32 33 34 38 39 41 43 45 48 51 52 53 54 55 56 55 55 55 55 55 56 58 61 62 63 63 64 64 65 67 69 69 69 69 68 69 70 70 71 71 72 73
35 41 42 45 49 51 51 51 53 53 52 53 55 56 58 59 60 61 61 61 62 63 64 66 67 67 68 69 69 69 70 70 71 71 72 73 73 73 73 72 73 75
33 41 47 50 54 58 59 58 56 54 54 55 57 61 63 65 67 68 68 68 67 68 69 70 70 71 72 72 70 70 71 72 74 74 74 75 76 76 75 74 75 77
33 37 44 51 58 61 62 62 60 57 57 58 60 63 66 69 70 72 74 74 71 71 72 73 74 74 72 70 71 73 74 75 75 75 75 76 78 78 78 78 79 81
38 39 41 46 54 64 67 66 65 64 64 66 67 68 68 69 70 73 76 77 75 74 75 77 78 76 73 72 74 76 76 76 76 77 77 78 78 80 82 83 85 86
44 44 46 47 48 56 65 68 67 67 66 66 69 71 72 72 72 73 75 76 76 78 79 79 79 78 78 79 80 79 78 78 79 79 80 80 81 83 84 85 87 87
51 49 50 54 53 52 56 61 64 65 65 65 66 68 71 72 73 73 74 76 77 78 78 78 78 80 81 81 81 80 79 79 80 81 82 84 85 86 87 87 87 86
54 58 54 54 58 59 59 60 61 63 64 65 65 66 68 69 70 71 73 75 76 77 78 79 81 82 81 81 81 81 82 82 82 83 83 85 87 88 88 86 83 82
47 61 63 58 57 60 64 65 64 64 65 66 66 67 68 69 70 71 72 74 76 78 80 81 83 84 84 84 84 85 85 85 84 84 84 84 85 84 83 82 82 83
39 51 63 66 63 62 64 66 67 67 68 68 69 70 71 72 74 75 75 76 77 79 81 84 86 88 89 88 86 85 84 83 82 81 81 80 79 79 80 81 82 84
39 43 52 63 68 69 70 70 70 70 71 72 72 72 72 73 76 78 78 78 79 80 82 85 87 89 90 89 87 85 83 82 81 80 80 80 80 81 82 84 85 86
42 43 45 51 59 67 72 74 75 75 75 76 76 76 75 75 76 78 79 80 81 82 83 84 86 86 87 87 87 86 86 85 85 85 85 86 86 87 88 90 90 91
44 45 46 47 51 56 63 69 74 77 79 79 79 79 79 79 80 81 81 82 83 84 84 84 84 84 84 84 84 86 87 88 88 88 89 90 91 92 94 96 97 98
45 46 47 48 50 52 55 59 64 69 74 78 82 84 85 85 86 86 86 86 87 88 88 89 90 90 89 89 89 88 88 89 90 91 93 95 96 98 99 101 103 104
48 47 48 49 50 52 54 55 58 60 63 66 71 77 82 86 89 91 93 93 93 93 94 93 94 95 96 97 97 96 95 95 95 97 98 100 102 104 105 107 109 111
50 50 49 50 51 52 54 56 57 58 60 61 62 65 69 73 78 83 87 91 95 98 100 100 101 101 102 102 102 102 103 103 104 105 106 108 109 111 113 115 118 120
51 51 52 52 52 53 54 56 57 58 59 61 62 63 64 65 66 68 71 75 79 83 88 93 97 101 103 106 108 109 110 110 110 110 111 113 115 116 119 120 121 122
51 52 53 53 53 54 55 56 57 58 59 60 61 62 63 64 65 65 66 67 69 71 73 76 81 85 89 93 99 104 108 111 113 113 113 115 116 117 117 117 116 115
52 53 53 54 54 55 56 57 58 59 59 60 61 62 63 64 65 66 66 67 68 69 70 72 74 76 78 82 86 92 98 105 111 112 110 108 107 105 103 102 100 100
52 53 54 54 55 56 56 57 59 59 60 60 61 62 63 64 64 65 66 67 68 69 70 71 73 74 76 77 79 82 85 89 94 96 95 94 93 93 92 91 91 91
53 54 55 55 56 57 57 57 58 59 59 60 61 62 62 63 63 64 64 65 66 68 69 70 71 73 74 75 77 78 79 81 83 85 87 88 89 89 89 89 89 88
55 54 55 55 56 57 57 58 58 58 58 59 61 61 61 62 62 63 64 64 65 67 68 69 70 72 73 74 75 77 78 79 81 83 85 86 86 86 86 86 86 85
Wind_Direction
247 194 169 173 177 174 175 176 179 185 193 200 206 213 220 222 224 225 225 229 235 242 249 254 253 250 250 250 251 252 252 252 252 253 254 254 254 255 256 257 259 261
218 197 178 178 183 181 179 180 184 190 196 202 208 213 217 220 223 225 226 230 236 241 245 246 243 243 245 248 251 254 255 256 256 257 258 258 259 260 260 261 262 263
213 205 191 190 191 188 187 189 193 200 203 205 209 212 216 219 222 226 230 234 239 241 241 240 240 242 246 249 252 255 257 258 260 262 263 264 265 265 266 267 268 268
214 209 198 197 199 198 199 201 202 203 205 207 211 215 221 225 227 230 235 240 242 239 236 237 242 246 249 253 255 258 259 261 263 264 265 266 268 270 272 272 272 271
214 209 202 200 205 206 205 205 203 204 208 213 218 223 227 232 235 236 238 239 239 236 235 240 247 251 254 256 258 260 262 264 265 266 267 268 270 272 273 273 273 273
219 213 208 204 204 206 206 205 205 209 216 223 227 229 231 234 238 240 239 237 236 237 241 247 251 253 256 259 262 264 264 265 266 267 269 270 271 271 272 273 274 275
226 220 216 211 207 205 206 209 211 215 222 227 230 231 233 236 240 242 240 237 238 242 246 249 251 254 258 261 263 265 266 268 268 269 270 271 272 273 273 273 275 276
236 230 224 221 217 213 211 212 216 220 223 228 231 233 235 238 241 243 240 239 244 249 250 251 253 255 257 260 263 265 267 268 268 269 270 271 273 274 274 275 276 277
237 239 235 229 224 222 221 221 224 227 229 232 235 236 237 240 242 243 241 243 249 253 254 254 255 255 256 261 266 267 267 268 268 268 270 271 272 273 274 276 277 278
233 237 238 238 233 226 224 225 227 229 231 233 235 236 237 241 244 245 245 248 252 254 254 254 254 254 259 266 270 270 268 267 267 268 270 270 271 271 272 274 276 277
231 234 236 236 237 234 229 227 226 227 229 231 233 235 238 241 245 247 248 250 252 252 252 253 254 258 265 270 273 272 270 269 268 269 269 269 269 270 271 273 274 274
230 231 234 233 233 234 234 233 231 230 230 232 234 236 238 240 243 245 247 248 249 250 252 255 259 263 267 270 271 271 271 270 270 269 268 268 268 270 270 271 271 270
232 229 231 233 232 232 233 234 234 235 235 236 237 238 239 241 243 246 248 249 250 251 254 258 262 264 266 267 268 268 268 268 267 267 267 267 267 268 268 268 268 268
240 231 230 232 234 234 233 234 235 236 237 239 241 242 244 246 248 250 252 253 254 255 257 259 261 262 262 263 263 264 264 264 264 265 265 265 265 264 264 264 265 266
244 239 233 232 233 234 235 236 237 237 238 239 240 242 244 246 247 249 251 253 254 255 256 257 258 258 258 258 258 260 261 261 262 262 262 262 263 262 261 261 262 263
246 243 239 236 234 234 235 236 237 238 238 239 239 240 242 243 244 245 246 248 249 251 252 253 254 254 254 255 256 257 258 259 259 259 259 260 260 260 260 260 261 261
248 246 244 241 238 236 235 235 235 236 238 239 239 240 241 242 242 242 243 244 245 246 248 249 251 252 252 252 254 255 257 257 257 257 257 258 259 260 260 261 262 263
251 248 246 245 244 241 239 237 236 237 237 239 240 242 242 243 243 242 243 244 245 246 247 247 248 250 250 251 252 254 255 256 256 257 258 259 260 261 262 263 264 266
255 253 249 247 246 246 244 243 241 240 239 240 241 242 243 243 243 244 245 246 246 247 248 248 249 250 251 252 253 254 255 256 256 257 259 260 261 262 263 264 265 266
258 257 254 251 249 247 247 246 246 244 243 242 242 242 243 244 244 245 246 247 248 248 249 250 250 251 251 252 253 254 255 256 257 259 260 261 263 263 264 266 266 267
259 258 258 257 254 252 250 248 248 247 247 246 245 245 245 246 246 247 249 250 251 252 252 252 253 253 254 254 255 256 257 258 259 260 261 263 264 265 267 268 268 269
260 260 259 259 258 256 254 252 250 249 249 248 248 248 248 248 249 249 250 251 253 254 255 256 257 258 258 258 258 259 259 259 260 261 263 264 266 266 267 267 267 268
260 260 259 259 258 258 256 255 253 252 251 251 250 250 250 251 251 251 252 252 253 254 254 255 256 257 258 258 259 259 260 259 259 260 262 263 264 264 265 266 266 267
258 258 258 258 258 258 257 256 256 255 255 254 254 254 254 254 254 254 255 255 256 256 257 257 258 258 258 259 259 259 260 260 260 261 263 264 265 267 269 270 271 272
256 256 257 257 257 257 257 257 257 256 256 257 257 257 256 257 257 257 258 258 259 259 260 260 261 261 262 262 263 263 264 264 265 266 267 269 270 272 273 275 275 276
254 254 255 255 255 255 256 256 256 256 256 256 257 257 257 257 257 258 259 259 260 261 261 262 262 263 264 265 266 266 267 268 268 269 270 272 273 275 276 277 277 279
Height
10516 10516 10517 10520 10522 10525 10531 10538 10544 10552 10559 10567 10573 10578 10584 10591 10597 10602 10607 10610 10613 10617 10619 10621 10623 10624 10625 10625 10625 10628 10631 10634 10636 10638 10642 10646 10649 10652 10656 10659 10660 10660
10525 10525 10526 10530 10531 10534 10539 10544 10550 10556 10562 10567 10573 10578 10583 10588 10593 10597 10602 10607 10610 10613 10615 10616 10618 10618 10618 10619 10620 10623 10625 10627 10630 10632 10636 10640 10643 10647 10650 10653 10654 10656
10533 10533 10534 10537 10540 10543 10547 10551 10555 10560 10564 10569 10574 10579 10582 10586 10590 10594 10599 10604 10607 10608 10610 10612 10613 10613 10613 10615 10618 10619 10620 10622 10624 10626 10629 10633 10636 10639 10642 10644 10646 10649
10538 10539 10540 10543 10546 10549 10552 10556 10560 10564 10568 10572 10576 10580 10583 10586 10589 10592 10596 10600 10602 10604 10606 10607 10608 10608 10610 10612 10614 10615 10616 10617 10619 10621 10624 10626 10629 10631 10633 10635 10637 10639
10540 10542 10543 10546 10550 10553 10556 10560 10564 10567 10571 10574 10577 10579 10582 10584 10587 10590 10593 10596 10599 10600 10602 10603 10603 10604 10606 10608 10610 10611 10612 10612 10614 10615 10618 10620 10622 10625 10626 10627 10628 10630
10540 10542 10544 10546 10549 10553 10557 10560 10563 10567 10570 10572 10574 10577 10579 10582 10584 10586 10589 10592 10594 10596 10597 10597 10598 10599 10601 10602 10605 10606 10606 10607 10608 10610 10613 10614 10615 10618 10620 10621 10622 10622
10538 10542 10544 10546 10548 10551 10553 10556 10559 10562 10565 10567 10570 10573 10576 10578 10580 10582 10585 10587 10588 10590 10591 10592 10593 10594 10595 10597 10599 10600 10600 10601 10602 10603 10606 10607 10607 10609 10612 10615 10616 10616
10535 10538 10542 10545 10548 10550 10551 10553 10556 10558 10561 10564 10566 10568 10571 10573 10576 10577 10579 10581 10582 10584 10586 10586 10588 10588 10590 10592 10593 10594 10595 10595 10595 10596 10598 10599 10599 10600 10602 10604 10606 10608
10531 10534 10537 10541 10544 10547 10549 10551 10553 10555 10557 10560 10561 10563 10566 10568 10570 10572 10573 10575 10576 10578 10579 10580 10581 10582 10584 10586 10587 10588 10589 10589 10589 10589 10591 10592 10593 10593 10592 10592 10594 10597
10527 10529 10532 10535 10538 10541 10545 10547 10550 10551 10552 10554 10556 10558 10560 10562 10564 10566 10567 10569 10570 10571 10573 10574 10574 10575 10577 10579 10580 10581 10582 10582 10582 10583 10584 10585 10586 10586 10586 10585 10586 10587
10522 10525 10527 10530 10533 10536 10540 10542 10544 10546 10548 10549 10551 10553 10555 10557 10558 10560 10561 10563 10564 10565 10566 10567 10568 10569 10570 10570 10571 10571 10573 10574 10575 10576 10577 10577 10577 10578 10579 10580 10580 10581
10517 10519 10522 10525 10528 10530 10533 10536 10538 10541 10543 10545 10547 10548 10550 10551 10553 10554 10555 10556 10557 10558 10559 10560 10561 10561 10561 10561 10561 10562 10564 10565 10567 10568 10570 10570 10570 10570 10571 10572 10572 10573
10512 10514 10516 10519 10522 10525 10527 10529 10532 10534 10537 10539 10541 10542 10544 10546 10547 10548 10549 10550 10550 10551 10552 10553 10553 10554 10555 10555 10555 10556 10557 10558 10559 10560 10561 10562 10563 10563 10563 10564 10564 10565
10507 10509 10511 10513 10516 10518 10521 10523 10526 10528 10530 10532 10534 10535 10537 10538 10540 10541 10542 10543 10544 10545 10546 10547 10547 10548 10549 10549 10550 10550 10551 10552 10552 10553 10554 10554 10555 10555 10556 10557 10557 10557
10503 10504 10506 10507 10509 10512 10514 10516 10518 10521 10523 10524 10526 10528 10530 10532 10533 10534 10535 10536 10537 10539 10540 10541 10541 10541 10542 10542 10543 10544 10544 10545 10546 10546 10547 10547 10548 10549 10549 10550 10550 10550
10498 10499 10501 10502 10503 10505 10507 10509 10511 10513 10515 10517 10519 10521 10523 10525 10525 10526 10528 10529 10531 10532 10533 10534 10534 10534 10535 10535 10536 10537 10538 10538 10539 10539 10540 10540 10541 10542 10542 10542 10542 10542
10491 10493 10495 10496 10498 10499 10500 10501 10503 10505 10507 10509 10512 10513 10515 10516 10517 10518 10520 10521 10523 10524 10525 10526 10526 10526 10527 10528 10529 10530 10530 10531 10532 10532 10532 10532 10533 10533 10533 10533 10533 10534
10485 10487 10488 10490 10492 10493 10494 10495 10495 10497 10499 10501 10503 10505 10506 10507 10508 10510 10512 10512 10514 10515 10515 10517 10517 10517 10519 10520 10521 10522 10522 10523 10524 10524 10524 10523 10524 10524 10524 10523 10523 10523
10477 10479 10481 10483 10485 10486 10487 10488 10489 10490 10492 10493 10495 10496 10497 10498 10500 10501 10503 10503 10505 10505 10506 10507 10507 10508 10509 10510 10511 10512 10513 10514 10514 10514 10514 10514 10514 10514 10513 10513 10512 10512
10469 10471 10473 10475 10477 10479 10480 10481 10482 10483 10485 10486 10487 10487 10488 10489 10490 10492 10493 10494 10495 10496 10496 10497 10497 10498 10500 10501 10501 10502 10502 10503 10504 10504 10504 10504 10503 10502 10501 10501 10500 10499
10461 10463 10464 10466 10468 10470 10472 10474 10475 10476 10477 10478 10479 10479 10479 10480 10481 10483 10484 10484 10485 10486 10487 10487 10487 10488 10490 10491 10491 10492 10492 10492 10493 10493 10493 10492 10491 10490 10488 10488 10487 10486
10455 10456 10456 10457 10459 10460 10462 10464 10466 10467 10469 10470 10471 10471 10472 10473 10474 10474 10475 10476 10477 10477 10478 10478 10478 10479 10480 10481 10481 10481 10481 10482 10482 10482 10481 10480 10478 10477 10476 10475 10474 10473
10448 10449 10450 10450 10451 10451 10453 10454 10455 10457 10459 10460 10462 10463 10464 10465 10466 10467 10467 10468 10469 10470 10470 10470 10469 10469 10471 10471 10471 10471 10471 10471 10470 10470 10470 10469 10466 10464 10463 10463 10462 10460
10441 10442 10443 10443 10444 10444 10445 10446 10447 10448 10449 10451 10452 10453 10455 10456 10457 10457 10458 10459 10460 10461 10461 10461 10460 10460 10460 10461 10460 10460 10460 10460 10459 10458 10458 10456 10453 10452 10450 10449 10447 10445
10433 10434 10435 10436 10437 10437 10438 10439 10439 10440 10441 10442 10443 10444 10446 10447 10447 10448 10449 10450 10450 10451 10451 10451 10450 10449 10449 10449 10449 10448 10448 10448 10447 10446 10444 10442 10440 10439 10437 10434 10432 10430
10426 10426 10427 10428 10429 10430 10431 10431 10432 10433 10434 10435 10435 10436 10438 10438 10439 10440 10440 10441 10441 10441 10441 10441 10440 10439 10439 10438 10438 10437 10437 10436 10435 10433 10432 10430 10428 10427 10424 10421 10419 10417